Regional Weather Roundup
Issued by NWS

Home | Current Version | Previous Version | Graphics & Text | Print | Product List | Glossary On
Versions: 1 2 3 4 5 6 7 8 9 10 11 12 13 14 15 16 17 18 19 20 21 22 23 24 25 26 27 28 29 30 31 32 33 34 35 36 37 38 39 40 41 42 43 44 45 46 47 48 49 50
957
ASUS44 KJAN 301203
RWRMS

MISSISSIPPI HOURLY WEATHER ROUNDUP
NATIONAL WEATHER SERVICE JACKSON MS
700 AM CDT WED JUL 30 2014

NOTE: "FAIR: INDICATES FEW OR NO CLOUDS BELOW 12,000 FEET WITH NO
SIGNIFICANT WEATHER AND/OR OBSTRUCTIONS TO VISIBILITY.

MSZ001>002-007>008-010>013-018>021-025>028-034>036-301300-
NORTHWEST MISSISSIPPI

CITY           SKY/WX    TMP DP  RH WIND       PRES   REMARKS
CLARKSDALE     FAIR      61  61 100 CALM      30.12S
CLEVELAND      FAIR      61  61 100 CALM      30.11R
GREENWOOD      CLEAR     60  57  89 CALM      30.11R
6HR MIN TEMP:  58; 6HR MAX TEMP:  63;

GREENVILLE     PTCLDY    62  60  93 CALM      30.11R
6HR MIN TEMP:  61; 6HR MAX TEMP:  66;

GRENADA        FAIR      55  55 100 CALM      30.12R
OLIVE BRANCH   CLEAR     59  59 100 CALM      30.12R
OXFORD         FAIR      57  55  94 CALM      30.13S
TUNICA         PTSUNNY   63  61  94 CALM      30.13R
$$

MSZ003>006-009-014>017-022>024-029>033-037>039-301300-
NORTHEAST MISSISSIPPI

CITY           SKY/WX    TMP DP  RH WIND       PRES   REMARKS
BELMONT        FAIR      57  56  97 CALM      30.11S
COLUMBUS AFB   MOSUNNY   60  59  97 NW2       30.11R
6HR MIN TEMP:  57; 6HR MAX TEMP:  60;

CORINTH        FAIR      55  55 100 CALM      30.12R
GOLDN TRIANGLE PTCLDY    55  52  88 NW3       30.10S
STARKVILLE     FAIR      55  55 100 CALM      30.11R
TUPELO         PTCLDY    62  56  80 CALM      30.11R
6HR MIN TEMP:  58; 6HR MAX TEMP:  62;

$$

MSZ040-058-301300-
CENTRAL MISSISSIPPI

CITY           SKY/WX    TMP DP  RH WIND       PRES   REMARKS
JACKSON INTL   PTCLDY    62  59  90 CALM      30.10R
6HR MIN TEMP:  59; 6HR MAX TEMP:  69;

JACKSON HAWKNS CLEAR     63  58  83 CALM      30.11R
6HR MIN TEMP:  61; 6HR MAX TEMP:  70;

MERIDIAN KEY   CLEAR     57  55  93 CALM      30.10R
6HR MIN TEMP:  56; 6HR MAX TEMP:  64;

MERIDIAN NAS   PTCLDY    58  55  90 CALM      30.10R
6HR MIN TEMP:  55; 6HR MAX TEMP:  65;

RAYMOND        FAIR      59  54  82 CALM      30.10S
VICKSBURG      CLEAR     61  58  90 CALM      30.11R
6HR MIN TEMP:  59; 6HR MAX TEMP:  69;

$$

MSZ059>079-301300-
SOUTH MISSISSIPPI

CITY           SKY/WX    TMP DP  RH WIND       PRES   REMARKS
BROOKHAVEN     FAIR      59  59 100 CALM      30.11S
COLUMBIA       FAIR      61  61 100 CALM      30.08R
HATTIESBURG    CLEAR     63  60  90 CALM      30.09S
6HR MIN TEMP:  62; 6HR MAX TEMP:  73;

MCCOMB         CLEAR     66  59  78 NE5       30.09R
6HR MIN TEMP:  65; 6HR MAX TEMP:  72;

NATCHEZ        CLEAR     63  59  88 CALM      30.11R
6HR MIN TEMP:  63; 6HR MAX TEMP:  70;

PINE BELT      CLEAR     63  55  77 N6        30.10R
6HR MIN TEMP:  61; 6HR MAX TEMP:  66;

$$

MSZ080>082-301300-
COASTAL MISSISSIPPI

CITY           SKY/WX    TMP DP  RH WIND       PRES   REMARKS
BAY ST LOUIS   CLEAR    N/A N/A N/A CALM      30.06
BILOXI         CLEAR     69  61  74 NE7       30.06R
6HR MIN TEMP:  69; 6HR MAX TEMP:  76;

PASCAGOULA     CLEAR     67  60  78 N6        30.06R
6HR MIN TEMP:  66; 6HR MAX TEMP:  73;

GULFPORT       CLEAR     72  60  66 N5        30.05S
6HR MIN TEMP:  71; 6HR MAX TEMP:  79;

$$



USA.gov is the U.S. government's official web portal to all federal, state and local government web resources and services.